TimeEST,TemperatureF,Dew PointF,Humidity,Sea Level PressureIn,VisibilityMPH,Wind Direction,Wind SpeedMPH,Gust SpeedMPH,PrecipitationIn,Events,Conditions,WindDirDegrees,DateUTC
12:53 AM,18.0,-5.1,36,30.48,10.0,WNW,6.9,-,N/A,,Clear,300,2013-01-28 05:53:00
1:53 AM,17.1,-5.1,37,30.50,10.0,Calm,Calm,-,N/A,,Scattered Clouds,0,2013-01-28 06:53:00
2:53 AM,17.1,-2.9,41,30.47,10.0,North,6.9,-,N/A,,Overcast,360,2013-01-28 07:53:00
3:53 AM,16.0,-2.0,45,30.46,10.0,North,6.9,-,N/A,,Mostly Cloudy,360,2013-01-28 08:53:00
4:53 AM,17.1,-0.9,45,30.45,10.0,North,6.9,-,N/A,,Overcast,350,2013-01-28 09:53:00
5:53 AM,17.1,-2.9,41,30.45,10.0,NNW,5.8,-,N/A,,Overcast,330,2013-01-28 10:53:00
6:53 AM,17.1,-2.9,41,30.43,10.0,North,5.8,-,N/A,,Partly Cloudy,350,2013-01-28 11:53:00
7:53 AM,18.0,-2.0,41,30.45,10.0,Calm,Calm,-,N/A,,Partly Cloudy,0,2013-01-28 12:53:00
8:53 AM,19.9,-0.0,42,30.43,10.0,Calm,Calm,-,N/A,,Mostly Cloudy,0,2013-01-28 13:53:00
9:53 AM,21.9,-0.9,37,30.43,10.0,Calm,Calm,-,N/A,,Overcast,0,2013-01-28 14:53:00
10:53 AM,24.1,1.0,37,30.40,10.0,Calm,Calm,-,N/A,,Overcast,0,2013-01-28 15:53:00
11:53 AM,25.0,1.9,37,30.35,10.0,Calm,Calm,-,N/A,,Overcast,0,2013-01-28 16:53:00
12:53 PM,24.1,9.0,53,30.32,5.0,Calm,Calm,-,0.00,Snow,Light Snow,0,2013-01-28 17:53:00
12:59 PM,24.8,10.4,54,30.25,4.0,Calm,Calm,-,0.00,Snow,Light Snow,0,2013-01-28 17:59:00
1:53 PM,25.0,10.9,55,30.25,10.0,Calm,Calm,-,0.00,,Overcast,0,2013-01-28 18:53:00
2:53 PM,26.1,10.9,53,30.23,10.0,NNE,3.5,-,N/A,,Overcast,20,2013-01-28 19:53:00
3:08 PM,26.6,12.2,55,30.16,3.0,South,5.8,-,0.00,Snow,Light Snow,190,2013-01-28 20:08:00
3:23 PM,24.8,15.8,69,30.16,1.5,South,4.6,-,0.00,Snow,Light Snow,180,2013-01-28 20:23:00
3:42 PM,24.8,17.6,74,30.16,0.8,SSE,4.6,-,0.00,Snow,Light Snow,160,2013-01-28 20:42:00
3:53 PM,24.1,19.0,81,30.22,0.8,SSE,4.6,-,0.00,Snow,Light Snow,160,2013-01-28 20:53:00
4:05 PM,23.0,19.4,86,30.15,0.5,South,3.5,-,0.01,Fog-Snow,Snow,170,2013-01-28 21:05:00
4:53 PM,24.1,21.0,88,30.19,0.5,ESE,4.6,-,0.06,Fog-Snow,Snow,120,2013-01-28 21:53:00
5:27 PM,24.8,21.2,86,30.10,1.0,East,4.6,-,0.01,Snow,Light Snow,100,2013-01-28 22:27:00
5:53 PM,24.1,19.9,84,30.16,1.0,Calm,Calm,-,0.02,Snow,Light Snow,0,2013-01-28 22:53:00
6:41 PM,23.0,19.4,86,30.09,4.0,Variable,3.5,-,0.00,Snow,Light Snow,0,2013-01-28 23:41:00
6:50 PM,23.0,19.4,86,30.07,6.0,NE,3.5,-,0.00,Snow,Light Snow,50,2013-01-28 23:50:00
6:53 PM,23.0,19.9,88,30.14,5.0,NNE,4.6,-,0.00,,Overcast,30,2013-01-28 23:53:00
7:44 PM,23.0,19.4,86,30.07,2.0,NNE,3.5,-,0.02,Snow,Light Snow,30,2013-01-29 00:44:00
7:53 PM,23.0,19.9,88,30.13,2.0,Calm,Calm,-,0.03,Snow,Light Snow,0,2013-01-29 00:53:00
7:55 PM,23.0,19.4,86,30.07,1.5,Calm,Calm,-,0.00,Snow,Light Snow,0,2013-01-29 00:55:00
8:38 PM,23.0,19.4,86,30.05,2.0,Calm,Calm,-,0.03,Snow,Light Snow,0,2013-01-29 01:38:00
8:53 PM,23.0,19.9,88,30.10,2.5,North,3.5,-,0.04,Snow,Light Snow,360,2013-01-29 01:53:00
9:12 PM,23.0,19.4,86,30.04,3.0,North,3.5,-,0.00,Snow,Light Snow,350,2013-01-29 02:12:00
9:25 PM,23.0,19.4,86,30.03,5.0,North,3.5,-,0.00,Snow,Light Snow,360,2013-01-29 02:25:00
9:53 PM,23.0,19.9,88,30.09,7.0,North,4.6,-,0.00,,Overcast,10,2013-01-29 02:53:00
10:30 PM,23.0,19.4,86,30.02,1.5,Calm,Calm,-,0.00,Snow,Light Snow,0,2013-01-29 03:30:00
10:51 PM,23.0,19.4,86,30.02,2.0,North,3.5,-,0.00,Snow,Light Snow,360,2013-01-29 03:51:00
10:53 PM,23.0,19.9,88,30.08,2.0,North,3.5,-,0.00,Snow,Light Snow,360,2013-01-29 03:53:00
11:23 PM,24.8,19.4,80,30.02,2.0,North,5.8,-,0.00,Snow,Light Snow,360,2013-01-29 04:23:00
11:49 PM,24.8,21.2,86,30.02,2.0,North,5.8,-,0.00,Snow,Light Snow,350,2013-01-29 04:49:00
11:53 PM,24.1,19.9,84,30.07,3.0,NNW,5.8,-,0.00,Snow,Light Snow,340,2013-01-29 04:53:00